Weather History for KOPM - December, 2013

Change the Weather History Date:

Monday, December 30, 2013

  Actual Average Record
Temperature  
Mean Temperature 59 °F -  
Max Temperature 68 °F - - ()
Min Temperature 50 °F - - ()
Degree Days  
Heating Degree Days 6    
Growing Degree Days 9 (Base 50)    
Moisture  
Dew Point 51 °F    
Average Humidity 88    
Maximum Humidity 94    
Minimum Humidity 78    
Precipitation  
Precipitation 0.70 in - - ()
Sea Level Pressure  
Sea Level Pressure 30.19 in    
Wind  
Wind Speed 14 mph (NNW)    
Max Wind Speed 25 mph    
Max Gust Speed 28 mph    
Visibility 6 miles    
Events      
T = Trace of Precipitation, MM = Missing Value Source: NWS Daily Summary

Daily Weather History Graph

Daily Weather History Graph

Search for Another Location

Airport or City:

Trip Planner

Search our weather history database for the weather conditions in past years. The results will help you decide how hot, cold, wet, or windy it might be!

Date:

Astronomy

Dec. 30, 2013 Rise Set
Actual Time 7:16 AM CST 5:44 PM CST
Civil Twilight 6:50 AM CST 6:10 PM CST
Nautical Twilight 6:21 AM CST 6:39 PM CST
Astronomical Twilight 5:53 AM CST 7:07 PM CST
Moon 5:11 AM CST (12/30) 4:15 PM CST (12/30)
Length of Visible Light 11h 19m
Length of Day
10h 28m
Waning Crescent, 4% of the Moon is Illuminated
Dec 30
Waning Crescent
Jan 1
New
Jan 7
First Quarter
Jan 15
Full
Jan 23
Last Quarter

Hourly Weather History & Observations

Time (CST) Temp. Dew Point Humidity Pressure Visibility Wind Dir Wind Speed Gust Speed Precip Events Conditions
12:15 AM 68.0 °F 60.8 °F 78% 30.04 in 10.0 mi NNE 16.1 mph - N/A   Overcast
12:35 AM 68.0 °F 60.8 °F 78% 30.06 in 10.0 mi NNE 9.2 mph 19.6 mph N/A   Overcast
12:55 AM 68.0 °F 60.8 °F 78% 30.04 in 10.0 mi NNE 6.9 mph - N/A   Overcast
1:15 AM 68.0 °F 60.8 °F 78% 30.03 in 10.0 mi NNE 17.3 mph - N/A   Mostly Cloudy
1:35 AM 68.0 °F 60.8 °F 78% 30.03 in 8.0 mi NE 21.9 mph - N/A   Overcast
1:55 AM 68.0 °F 60.8 °F 78% 30.02 in 9.0 mi NE 25.3 mph - N/A   Overcast
2:15 AM 68.0 °F 60.8 °F 78% 30.03 in 5.0 mi NNE 20.7 mph 27.6 mph N/A   Haze
2:35 AM 68.0 °F 60.8 °F 78% 30.04 in 5.0 mi NNE 9.2 mph 17.3 mph N/A   Haze
2:55 AM 62.6 °F 59.0 °F 88% 30.03 in 6.0 mi North 16.1 mph 25.3 mph 0.03 in   Haze
3:15 AM 59.0 °F 55.4 °F 88% 30.05 in 4.0 mi NNW 17.3 mph - N/A   Overcast
3:35 AM 57.2 °F 55.4 °F 94% 30.06 in 3.0 mi North 17.3 mph 25.3 mph N/A   Overcast
3:55 AM 57.2 °F 55.4 °F 94% 30.07 in 3.0 mi NNW 13.8 mph 21.9 mph 0.03 in   Overcast
4:15 AM 57.2 °F 53.6 °F 88% 30.07 in 3.0 mi NNW 16.1 mph - N/A   Overcast
4:35 AM 55.4 °F 53.6 °F 94% 30.07 in 3.0 mi North 17.3 mph 24.2 mph N/A   Overcast
4:55 AM 55.4 °F 53.6 °F 94% 30.08 in 4.0 mi North 15.0 mph 25.3 mph 0.03 in   Overcast
5:15 AM 55.4 °F 51.8 °F 88% 30.11 in 3.0 mi NNW 16.1 mph 25.3 mph N/A   Overcast
5:35 AM 53.6 °F 51.8 °F 94% 30.11 in 3.0 mi NNW 17.3 mph 24.2 mph N/A   Overcast
5:55 AM 55.4 °F 51.8 °F 88% 30.12 in 3.0 mi NNW 17.3 mph 24.2 mph 0.06 in   Overcast
6:10 AM 53.6 °F 51.8 °F 94% 30.14 in 4.0 mi NNW 20.7 mph - N/A   Overcast
6:35 AM 53.6 °F 50.0 °F 88% 30.14 in 4.0 mi NNW 13.8 mph 25.3 mph N/A   Overcast
6:55 AM 53.6 °F 50.0 °F 88% 30.13 in 4.0 mi NNW 16.1 mph 24.2 mph 0.05 in   Overcast
7:15 AM 53.6 °F 50.0 °F 88% 30.15 in 4.0 mi NNW 12.7 mph 20.7 mph N/A   Overcast
7:35 AM 53.6 °F 50.0 °F 88% 30.15 in 4.0 mi North 12.7 mph 19.6 mph N/A   Overcast
7:55 AM 53.6 °F 51.8 °F 94% 30.17 in 3.0 mi NNW 15.0 mph - 0.05 in   Overcast
8:15 AM 53.6 °F 51.8 °F 94% 30.17 in 4.0 mi NNW 12.7 mph 21.9 mph N/A   Overcast
8:35 AM 53.6 °F 51.8 °F 94% 30.18 in 6.0 mi NNW 12.7 mph 19.6 mph N/A   Overcast
8:55 AM 53.6 °F 51.8 °F 94% 30.19 in 4.0 mi NNW 13.8 mph 20.7 mph 0.02 in   Overcast
9:05 AM 53.6 °F 51.8 °F 94% 30.20 in 4.0 mi NNW 17.3 mph - N/A   Overcast
9:30 AM 53.6 °F 50.0 °F 88% 30.21 in 3.0 mi NNW 15.0 mph 21.9 mph N/A   Overcast
9:45 AM 53.6 °F 50.0 °F 88% 30.23 in 3.0 mi NNW 17.3 mph - N/A   Overcast
10:15 AM 51.8 °F 48.2 °F 88% 30.23 in 4.0 mi NNW 12.7 mph 23.0 mph N/A   Mostly Cloudy
10:35 AM 51.8 °F 48.2 °F 88% 30.24 in 4.0 mi NNW 13.8 mph 20.7 mph N/A   Mostly Cloudy
10:55 AM 51.8 °F 48.2 °F 88% 30.24 in 4.0 mi NNW 13.8 mph 20.7 mph 0.03 in   Overcast
11:15 AM 51.8 °F 48.2 °F 88% 30.24 in 6.0 mi NNW 16.1 mph - N/A   Overcast
11:30 AM 51.8 °F 48.2 °F 88% 30.25 in 3.0 mi NNW 15.0 mph 24.2 mph N/A   Overcast
11:55 AM 50.0 °F 48.2 °F 94% 30.25 in 3.0 mi NNW 20.7 mph - 0.05 in   Overcast
12:15 PM 51.8 °F 48.2 °F 88% 30.22 in 6.0 mi NNW 13.8 mph - N/A   Mostly Cloudy
12:35 PM 51.8 °F 48.2 °F 88% 30.21 in - NNW 12.7 mph 19.6 mph N/A   Unknown
12:55 PM 51.8 °F 48.2 °F 88% 30.19 in 6.0 mi NNW 13.8 mph 20.7 mph 0.03 in   Mostly Cloudy
1:15 PM 51.8 °F 48.2 °F 88% 30.21 in 7.0 mi NNW 12.7 mph - N/A   Mostly Cloudy
1:35 PM 51.8 °F 48.2 °F 88% 30.20 in 7.0 mi NNW 16.1 mph 21.9 mph N/A   Mostly Cloudy
1:55 PM 51.8 °F 48.2 °F 88% 30.20 in 7.0 mi NNW 13.8 mph 20.7 mph 0.01 in   Mostly Cloudy
2:15 PM 51.8 °F 48.2 °F 88% 30.19 in 6.0 mi NNW 13.8 mph 19.6 mph N/A   Mostly Cloudy
2:35 PM 51.8 °F 48.2 °F 88% 30.20 in 6.0 mi NNW 10.4 mph 20.7 mph N/A   Mostly Cloudy
2:55 PM 51.8 °F 48.2 °F 88% 30.19 in 5.0 mi NNW 13.8 mph 19.6 mph 0.03 in   Mostly Cloudy
3:15 PM 51.8 °F 48.2 °F 88% 30.20 in 4.0 mi NNW 10.4 mph - N/A   Mostly Cloudy
3:35 PM 51.8 °F 48.2 °F 88% 30.21 in 5.0 mi NNW 15.0 mph - N/A   Overcast
3:55 PM 51.8 °F 48.2 °F 88% 30.23 in 5.0 mi NNW 17.3 mph - 0.04 in   Overcast
4:15 PM 51.8 °F 48.2 °F 88% 30.23 in 4.0 mi NNW 16.1 mph - N/A   Overcast
4:35 PM 51.8 °F 48.2 °F 88% 30.23 in 5.0 mi NNW 12.7 mph 20.7 mph N/A   Overcast
4:55 PM 51.8 °F 48.2 °F 88% 30.23 in 7.0 mi NNW 13.8 mph - 0.04 in   Overcast
5:15 PM 51.8 °F 48.2 °F 88% 30.24 in 6.0 mi NNW 9.2 mph 18.4 mph N/A   Overcast
5:35 PM 51.8 °F 48.2 °F 88% 30.23 in 4.0 mi NNW 11.5 mph 18.4 mph N/A   Overcast
5:55 PM 51.8 °F 48.2 °F 88% 30.24 in 6.0 mi NNW 11.5 mph 17.3 mph 0.04 in   Overcast
6:15 PM 51.8 °F 48.2 °F 88% 30.25 in 8.0 mi NNW 11.5 mph - N/A   Overcast
6:35 PM 53.6 °F 48.2 °F 82% 30.25 in 7.0 mi NNW 10.4 mph 19.6 mph N/A   Overcast
6:55 PM 53.6 °F 50.0 °F 88% 30.27 in 8.0 mi NNW 11.5 mph 17.3 mph 0.02 in   Overcast
7:15 PM 53.6 °F 50.0 °F 88% 30.27 in 9.0 mi NNW 11.5 mph - N/A   Overcast
7:35 PM 53.6 °F 50.0 °F 88% 30.28 in 9.0 mi North 9.2 mph 17.3 mph N/A   Overcast
7:55 PM 53.6 °F 50.0 °F 88% 30.29 in 10.0 mi NNW 10.4 mph - 0.02 in   Overcast
8:15 PM 53.6 °F 50.0 °F 88% 30.29 in 9.0 mi NNW 9.2 mph 16.1 mph N/A   Overcast
8:35 PM 53.6 °F 50.0 °F 88% 30.29 in 8.0 mi NNW 10.4 mph 18.4 mph N/A   Overcast
8:55 PM 53.6 °F 50.0 °F 88% 30.30 in 10.0 mi North 10.4 mph - 0.01 in   Overcast
9:15 PM 53.6 °F 50.0 °F 88% 30.32 in 9.0 mi NNW 9.2 mph 17.3 mph N/A   Overcast
9:35 PM 53.6 °F 50.0 °F 88% 30.33 in 7.0 mi NNW 9.2 mph - N/A   Overcast
9:55 PM 53.6 °F 50.0 °F 88% 30.33 in 6.0 mi NNW 9.2 mph 15.0 mph 0.03 in   Overcast
10:15 PM 55.4 °F 51.8 °F 88% 30.34 in 6.0 mi NNW 9.2 mph 16.1 mph N/A   Overcast
10:35 PM 55.4 °F 51.8 °F 88% 30.33 in 5.0 mi NNW 9.2 mph 15.0 mph N/A   Overcast
10:55 PM 55.4 °F 51.8 °F 88% 30.33 in 6.0 mi NNW 10.4 mph - 0.04 in   Overcast
11:15 PM 53.6 °F 51.8 °F 94% 30.34 in 6.0 mi NNW 11.5 mph 18.4 mph N/A   Overcast
11:35 PM 53.6 °F 50.0 °F 88% 30.34 in 6.0 mi NNW 11.5 mph 18.4 mph N/A   Overcast
11:55 PM 53.6 °F 50.0 °F 88% 30.33 in 5.0 mi NNW 9.2 mph 16.1 mph 0.04 in   Overcast